timestamp,wind_dir_avg,wind_spd_max_dir,wind_spd_avg,wind_spd_gust,battery_voltage,lat,long
2017-09-14 00:00:00+00:00,9.0,18.0,5.99,7.44,12.7,47.59359,-54.27349
2017-09-14 00:10:00+00:00,19.0,19.0,5.26,6.31,12.6,47.59359,-54.27349
2017-09-14 00:20:00+00:00,27.0,32.0,4.73,5.73,12.7,47.59359,-54.27349
2017-09-14 00:30:00+00:00,12.0,15.0,4.66,5.2,12.7,47.59359,-54.27349
2017-09-14 00:40:00+00:00,2.0,9.0,3.72,4.18,12.7,47.59359,-54.27349
2017-09-14 00:50:00+00:00,8.0,6.0,3.63,4.67,12.7,47.59359,-54.27349
2017-09-14 01:00:00+00:00,3.0,2.0,3.58,4.96,12.6,47.59359,-54.27349
2017-09-14 01:10:00+00:00,332.0,336.0,3.18,4.4,12.6,47.59359,-54.27349
2017-09-14 01:20:00+00:00,342.0,342.0,2.72,3.09,12.7,47.59359,-54.27349
2017-09-14 01:30:00+00:00,343.0,343.0,3.07,3.62,12.7,47.59359,-54.27349
2017-09-14 01:40:00+00:00,339.0,342.0,2.92,3.21,12.7,47.59359,-54.27349
2017-09-14 01:50:00+00:00,335.0,337.0,2.7,3.12,12.7,47.59359,-54.27349
2017-09-14 02:00:00+00:00,324.0,316.0,2.89,3.43,12.6,47.59359,-54.27349
2017-09-14 02:10:00+00:00,338.0,343.0,2.81,3.81,12.6,47.59359,-54.27349
2017-09-14 02:20:00+00:00,333.0,332.0,2.96,3.28,12.6,47.59359,-54.27349
2017-09-14 02:30:00+00:00,325.0,329.0,2.44,2.99,12.6,47.59359,-54.27349
2017-09-14 02:40:00+00:00,311.0,308.0,4.0,4.65,12.7,47.59359,-54.27349
2017-09-14 02:50:00+00:00,304.0,309.0,4.87,5.49,12.7,47.59359,-54.27349
2017-09-14 03:00:00+00:00,315.0,314.0,4.2,4.75,12.6,47.59359,-54.27349
2017-09-14 03:10:00+00:00,300.0,302.0,5.42,6.09,12.6,47.59359,-54.27349
2017-09-14 03:20:00+00:00,293.0,295.0,4.33,4.96,12.6,47.59359,-54.27349
2017-09-14 03:30:00+00:00,284.0,285.0,4.95,5.42,12.6,47.59359,-54.27349
2017-09-14 03:40:00+00:00,284.0,283.0,4.32,5.06,12.6,47.59359,-54.27349
2017-09-14 03:50:00+00:00,293.0,296.0,2.96,3.39,12.6,47.59359,-54.27349
2017-09-14 04:00:00+00:00,275.0,270.0,3.63,4.03,12.6,47.59359,-54.27349
2017-09-14 04:10:00+00:00,276.0,284.0,2.82,3.36,12.6,47.59359,-54.27349
2017-09-14 04:20:00+00:00,277.0,275.0,2.52,3.06,12.6,47.59359,-54.27349
2017-09-14 04:30:00+00:00,265.0,283.0,2.24,2.96,12.6,47.59359,-54.27349
2017-09-14 04:40:00+00:00,248.0,251.0,2.25,2.62,12.6,47.59359,-54.27349
2017-09-14 04:50:00+00:00,225.0,231.0,2.84,3.36,12.6,47.59359,-54.27349
2017-09-14 05:00:00+00:00,254.0,260.0,3.26,3.83,12.6,47.59359,-54.27349
2017-09-14 05:10:00+00:00,247.0,249.0,3.2,3.72,12.6,47.59359,-54.27349
2017-09-14 05:20:00+00:00,258.0,265.0,3.69,4.2,12.6,47.59359,-54.27349
2017-09-14 05:30:00+00:00,269.0,277.0,3.12,3.83,12.6,47.59359,-54.27349
2017-09-14 05:40:00+00:00,255.0,254.0,3.91,4.62,12.6,47.59359,-54.27349
2017-09-14 05:50:00+00:00,255.0,249.0,3.74,4.67,12.6,47.59359,-54.27349
2017-09-14 06:00:00+00:00,272.0,274.0,3.86,5.14,12.6,47.59359,-54.27349
2017-09-14 06:10:00+00:00,259.0,256.0,3.08,4.09,12.6,47.59359,-54.27349
2017-09-14 06:20:00+00:00,246.0,251.0,3.19,3.74,12.6,47.59359,-54.27349
2017-09-14 06:30:00+00:00,271.0,270.0,3.79,4.18,12.6,47.59359,-54.27349
2017-09-14 06:40:00+00:00,291.0,298.0,3.7,4.65,12.6,47.59359,-54.27349
2017-09-14 06:50:00+00:00,276.0,278.0,3.77,4.44,12.6,47.59359,-54.27349
2017-09-14 07:00:00+00:00,256.0,261.0,2.67,3.37,12.6,47.59359,-54.27349
2017-09-14 07:10:00+00:00,279.0,290.0,1.23,1.67,12.6,47.59359,-54.27349
2017-09-14 07:20:00+00:00,252.0,254.0,2.53,2.94,12.6,47.59359,-54.27349
2017-09-14 07:30:00+00:00,271.0,276.0,1.97,2.48,12.6,47.59359,-54.27349
2017-09-14 07:40:00+00:00,272.0,271.0,1.72,1.99,12.6,47.59359,-54.27349
2017-09-14 07:50:00+00:00,271.0,275.0,2.0,2.46,12.6,47.59359,-54.27349
2017-09-14 08:00:00+00:00,292.0,301.0,1.9,2.71,12.6,47.59359,-54.27349
2017-09-14 08:10:00+00:00,261.0,253.0,2.55,3.51,12.5,47.59359,-54.27349
2017-09-14 08:20:00+00:00,279.0,273.0,5.71,8.43,12.6,47.59359,-54.27349
2017-09-14 08:30:00+00:00,250.0,256.0,4.58,5.64,12.6,47.59359,-54.27349
2017-09-14 08:40:00+00:00,276.0,279.0,2.91,3.05,12.6,47.59359,-54.27349
2017-09-14 08:50:00+00:00,286.0,289.0,2.19,2.58,12.6,47.59359,-54.27349
2017-09-14 09:00:00+00:00,242.0,245.0,4.4,4.91,12.6,47.59359,-54.27349
2017-09-14 09:10:00+00:00,236.0,245.0,4.11,4.93,12.5,47.59359,-54.27349
2017-09-14 09:20:00+00:00,268.0,267.0,5.19,7.1,12.6,47.59359,-54.27349
2017-09-14 09:30:00+00:00,262.0,258.0,5.48,6.87,12.6,47.59359,-54.27349
2017-09-14 09:40:00+00:00,243.0,235.0,3.19,4.02,12.6,47.59359,-54.27349
2017-09-14 09:50:00+00:00,261.0,269.0,3.31,4.16,12.8,47.59359,-54.27349
2017-09-14 10:00:00+00:00,273.0,285.0,5.49,6.64,13.0,47.59359,-54.27349
2017-09-14 10:10:00+00:00,270.0,269.0,2.98,3.22,13.2,47.59359,-54.27349
2017-09-14 10:20:00+00:00,276.0,272.0,2.78,3.22,13.8,47.59359,-54.27349
2017-09-14 10:30:00+00:00,264.0,265.0,1.95,2.35,14.3,47.59359,-54.27349
2017-09-14 10:40:00+00:00,247.0,253.0,0.8,1.83,13.8,47.59359,-54.27349
2017-09-14 10:50:00+00:00,229.0,231.0,3.09,3.93,13.7,47.59359,-54.27349
2017-09-14 11:00:00+00:00,211.0,207.0,1.8,2.79,13.7,47.59359,-54.27349
2017-09-14 11:10:00+00:00,273.0,272.0,3.78,4.41,13.7,47.59359,-54.27349
2017-09-14 11:20:00+00:00,281.0,282.0,3.5,3.75,13.9,47.59359,-54.27349
2017-09-14 11:30:00+00:00,246.0,241.0,2.6,2.88,14.0,47.59359,-54.27349
2017-09-14 11:40:00+00:00,205.0,211.0,2.23,2.74,14.0,47.59359,-54.27349
2017-09-14 11:50:00+00:00,239.0,237.0,3.75,4.08,13.8,47.59359,-54.27349
2017-09-14 12:00:00+00:00,214.0,211.0,4.54,5.23,13.8,47.59359,-54.27349
2017-09-14 12:10:00+00:00,217.0,217.0,5.7,6.13,13.7,47.59359,-54.27349
2017-09-14 12:20:00+00:00,214.0,214.0,5.96,6.47,13.7,47.59359,-54.27349
2017-09-14 12:30:00+00:00,215.0,213.0,4.01,4.73,13.8,47.59359,-54.27349
2017-09-14 12:40:00+00:00,205.0,209.0,5.79,6.31,13.8,47.59359,-54.27349
2017-09-14 12:50:00+00:00,217.0,219.0,5.99,6.57,13.8,47.59359,-54.27349
2017-09-14 13:00:00+00:00,222.0,219.0,6.15,7.04,13.8,47.59359,-54.27349
2017-09-14 13:10:00+00:00,215.0,213.0,8.37,9.26,13.8,47.59359,-54.27349
2017-09-14 13:20:00+00:00,220.0,223.0,8.68,9.63,13.8,47.59359,-54.27349
2017-09-14 13:30:00+00:00,227.0,237.0,8.54,10.01,13.8,47.59359,-54.27349
2017-09-14 13:40:00+00:00,225.0,228.0,8.97,10.09,13.8,47.59359,-54.27349
2017-09-14 13:50:00+00:00,226.0,225.0,9.61,12.74,13.9,47.59359,-54.27349
2017-09-14 14:00:00+00:00,222.0,227.0,8.26,9.84,13.8,47.59359,-54.27349
2017-09-14 14:10:00+00:00,226.0,229.0,9.22,10.11,13.7,47.59359,-54.27349
2017-09-14 14:20:00+00:00,225.0,223.0,8.34,9.54,13.8,47.59359,-54.27349
2017-09-14 14:30:00+00:00,222.0,220.0,8.85,9.77,13.7,47.59359,-54.27349
2017-09-14 14:40:00+00:00,223.0,229.0,8.52,9.25,13.7,47.59359,-54.27349
2017-09-14 14:50:00+00:00,219.0,222.0,8.32,9.25,13.9,47.59359,-54.27349
2017-09-14 15:00:00+00:00,217.0,216.0,8.08,8.8,13.8,47.59359,-54.27349
2017-09-14 15:10:00+00:00,220.0,218.0,7.91,9.15,13.9,47.59359,-54.27349
2017-09-14 15:20:00+00:00,218.0,219.0,8.46,9.9,13.8,47.59359,-54.27349
2017-09-14 15:30:00+00:00,217.0,218.0,8.8,9.95,13.9,47.59359,-54.27349
2017-09-14 15:40:00+00:00,213.0,208.0,8.1,8.95,13.9,47.59359,-54.27349
2017-09-14 15:50:00+00:00,213.0,214.0,9.06,10.14,13.8,47.59359,-54.27349
2017-09-14 16:00:00+00:00,215.0,215.0,8.99,9.82,13.8,47.59359,-54.27349
2017-09-14 16:10:00+00:00,217.0,218.0,9.15,10.41,13.9,47.59359,-54.27349
2017-09-14 16:20:00+00:00,219.0,224.0,9.37,10.73,13.9,47.59359,-54.27349
2017-09-14 16:30:00+00:00,218.0,217.0,9.61,10.65,13.8,47.59359,-54.27349
2017-09-14 16:40:00+00:00,218.0,219.0,9.22,10.1,13.8,47.59359,-54.27349
2017-09-14 16:50:00+00:00,218.0,229.0,7.94,9.3,13.8,47.59359,-54.27349
2017-09-14 17:00:00+00:00,223.0,222.0,7.48,8.56,13.8,47.59359,-54.27349
2017-09-14 17:10:00+00:00,219.0,219.0,8.1,8.98,13.7,47.59359,-54.27349
2017-09-14 17:20:00+00:00,221.0,216.0,7.33,8.01,13.8,47.59359,-54.27349
2017-09-14 17:30:00+00:00,226.0,230.0,6.11,6.73,13.8,47.59359,-54.27349
2017-09-14 17:40:00+00:00,221.0,221.0,5.17,5.77,13.8,47.59359,-54.27349
2017-09-14 17:50:00+00:00,259.0,254.0,6.17,8.19,13.6,47.59359,-54.27349
2017-09-14 18:00:00+00:00,270.0,272.0,7.89,9.45,13.8,47.59359,-54.27349
2017-09-14 18:10:00+00:00,268.0,267.0,10.6,11.71,13.7,47.59359,-54.27349
2017-09-14 18:20:00+00:00,272.0,276.0,4.1,4.96,13.6,47.59359,-54.27349
2017-09-14 18:30:00+00:00,237.0,255.0,4.31,5.74,13.7,47.59359,-54.27349
2017-09-14 18:40:00+00:00,257.0,271.0,5.54,6.81,13.7,47.59359,-54.27349
2017-09-14 18:50:00+00:00,259.0,272.0,5.32,7.13,13.7,47.59359,-54.27349
2017-09-14 19:00:00+00:00,251.0,254.0,6.31,7.98,13.7,47.59359,-54.27349
2017-09-14 19:10:00+00:00,244.0,246.0,6.04,7.58,13.8,47.59359,-54.27349
2017-09-14 19:20:00+00:00,251.0,253.0,6.24,7.32,14.3,47.59359,-54.27349
2017-09-14 19:30:00+00:00,255.0,255.0,6.01,6.58,14.2,47.59359,-54.27349
2017-09-14 19:40:00+00:00,265.0,261.0,4.41,4.73,14.2,47.59359,-54.27349
2017-09-14 19:50:00+00:00,253.0,254.0,5.39,6.39,14.1,47.59359,-54.27349
2017-09-14 20:00:00+00:00,250.0,254.0,6.41,7.04,13.9,47.59359,-54.27349
2017-09-14 20:10:00+00:00,247.0,248.0,7.48,9.35,13.8,47.59359,-54.27349
2017-09-14 20:20:00+00:00,247.0,252.0,8.43,9.39,13.8,47.59359,-54.27349
2017-09-14 20:30:00+00:00,247.0,244.0,7.68,8.95,13.8,47.59359,-54.27349
2017-09-14 20:40:00+00:00,245.0,247.0,6.96,8.0,13.8,47.59359,-54.27349
2017-09-14 20:50:00+00:00,227.0,228.0,6.27,7.27,13.8,47.59359,-54.27349
2017-09-14 21:00:00+00:00,226.0,228.0,6.47,7.25,13.6,47.59359,-54.27349
2017-09-14 21:10:00+00:00,230.0,229.0,6.67,7.15,13.4,47.59359,-54.27349
2017-09-14 21:20:00+00:00,232.0,232.0,6.16,7.01,13.4,47.59359,-54.27349
2017-09-14 21:30:00+00:00,236.0,240.0,6.77,7.65,13.4,47.59359,-54.27349
2017-09-14 21:40:00+00:00,234.0,234.0,6.23,6.83,13.3,47.59359,-54.27349
2017-09-14 21:50:00+00:00,231.0,230.0,6.36,7.18,13.3,47.59359,-54.27349
2017-09-14 22:00:00+00:00,227.0,225.0,6.67,7.56,13.1,47.59359,-54.27349
2017-09-14 22:10:00+00:00,229.0,232.0,6.21,6.8,13.0,47.59359,-54.27349
2017-09-14 22:20:00+00:00,227.0,227.0,6.19,6.66,13.0,47.59359,-54.27349
2017-09-14 22:30:00+00:00,228.0,228.0,6.17,6.53,12.9,47.59359,-54.27349
2017-09-14 22:40:00+00:00,228.0,229.0,6.35,6.74,12.9,47.59359,-54.27349
2017-09-14 22:50:00+00:00,230.0,232.0,6.17,7.23,12.9,47.59359,-54.27349
2017-09-14 23:00:00+00:00,231.0,235.0,6.54,7.31,12.8,47.59359,-54.27349
2017-09-14 23:10:00+00:00,231.0,232.0,7.54,8.16,12.6,47.59359,-54.27349
2017-09-14 23:20:00+00:00,232.0,233.0,6.79,7.25,12.7,47.59359,-54.27349
2017-09-14 23:30:00+00:00,232.0,231.0,7.47,8.3,12.7,47.59359,-54.27349
2017-09-14 23:40:00+00:00,229.0,230.0,7.23,7.95,12.7,47.59359,-54.27349
2017-09-14 23:50:00+00:00,230.0,228.0,7.27,8.21,12.7,47.59359,-54.27349
